星链-31326 (STARLINK-31326 )

导读

STARLINK-31326是美国SpaceX星链星座的组网卫星,于2024年1月29日发射升空。星链项目计划构建近万颗卫星的全球互联网星座,可提供覆盖全球的低时延宽带接入服务。该卫星运行在近地轨道,配备相控阵天线与氪离子推进系统,支持星间激光通信,具备自主碰撞规避能力,服务全球偏远地区网络覆盖与应急通信场景,进一步完善了星链星座的全球服务能力。

Basic Information
目录编号:
58877
目录名称:
STARLINK-31326
国际标识:
2024-020B
轨道中心:
EARTH
卫星名称:
星链-31326
卫星全名:
星链-31326 (STARLINK-31326 )
卫星状态:
在轨 (已飞行949 天)
发射日期:
2024-01-29 UTC
国别 :
美国 (US)
星等 :
--
Orbit Information
数据来源 国际轨道数据 AOE轨道数据
星历时间 2026-09-03T15:59:50+0800
1天前
查看轨道信息
2026-08-31T12:00:00+0800
4天前
查看轨道信息
半长轴 6848.843km 6848.881km
偏心率 0.0001228 0.0001069
轨道倾角 53.159° 53.156°
近地点辐角 88.775° 75.703°
升交点赤经 216.254° 230.998°
平近点角 271.339° 93.844°
近地点 469.864km 470.011km
远地点 471.548km 471.477km
周期 94.012分钟 94.013分钟
每日圈数 15.317115 15.316987
Detailed Information
固有亮度:
5
最大亮度:
0.3
卫星平台:
Starlink v2.0 mini
覆盖范围:
全球
运营商:
太空探索技术公司
运营商所在国:
美国
制造商(研发单位):
太空探索技术公司
制造商所在国:
美国
使用方式:
暂无
Satellite Introduction
星链(Starlink)计划是由太空探索技术公司(SpaceX)提出的一个巨型低轨卫星互联网星座项目,计划在2019年至2024年间在太空搭建由约1.2万颗卫星组成的“星链”网络,其中1584颗将部署在地球上空550千米处的近地轨道,并从2020年开始工作。该卫星仍在工作。
2D Orbit Map
3D Orbit Map
Orbit Altitude Analysis Chart
Orbit Inclination Analysis Chart
Orbit Comprehensive Analysis Chart
View Comprehensive Chart
Conjunction Data List
Event ID Objects TCA Miss Dist (km) Collision Risk Probability Collision Risk Index (CRI) Action
CDM_260905-164905-887706-268121
2026-09-05T
16:49:59+0000
1.878 km
极远距离
3.163021E-6 低风险 0.45
CDM_260905-182205-887706-667021
HUNITY-1 (66670)
2026-09-05T
18:22:41+0000
2.420 km
极远距离
1.72462E-6 低风险 0.4
CDM_260905-085605-887706-874221
2026-09-05T
08:56:38+0000
2.998 km
极远距离
1.16849E-6 低风险 0.36
CDM_260904-122505-887706-797421
2026-09-04T
12:25:06+0000
2.624 km
极远距离
1.112126E-6 低风险 0.36